Vorticity
7 6 6 8 9 9 8 5 4 3 3 5 4 5 9 11 4 3 1 5 6 7 6 4 4 5 5 5 5 4 3 4 3
3 4 6 7 9 6 6 10 8 8 5 2 3 5 5 5 12 6 3 2 2 6 6 7 6 5 4 5 5 6 5 5 4
1 1 1 2 3 4 7 6 4 6 10 7 3 3 4 5 4 8 11 3 2 2 4 6 6 7 6 6 5 5 5 6 6
4 4 3 3 3 3 3 4 6 6 3 8 9 5 4 3 5 5 5 11 8 3 1 2 5 6 7 6 7 7 6 6 6
4 4 5 4 4 5 5 4 3 3 4 5 6 8 8 4 3 3 5 4 5 12 6 4 1 2 4 4 6 6 6 6 6
7 7 7 8 8 8 7 7 6 5 4 2 4 6 6 9 5 3 3 4 6 5 9 9 5 4 2 2 2 2 4 5 6
18 19 18 19 18 13 12 10 8 7 8 6 4 2 5 6 7 7 5 4 3 4 6 6 9 10 6 3 4 3 3 3 3
8 10 8 7 8 11 13 16 17 19 11 7 7 5 3 4 6 6 8 5 4 3 2 4 6 6 9 10 9 3 2 2 2
6 3 4 6 8 9 8 9 8 8 12 17 13 8 6 3 3 6 5 9 7 5 3 3 2 5 4 5 6 7 11 11 9
9 10 11 11 10 10 10 9 7 5 10 7 13 18 10 7 5 5 5 6 9 7 5 5 4 3 5 5 5 5 6 6 7
18 16 13 10 5 10 11 11 13 9 8 5 9 7 16 14 8 5 5 7 7 8 9 6 5 4 3 3 2 1 4 5 3
4 1 1 0 4 4 9 6 8 6 16 9 6 8 5 11 16 8 7 5 7 5 7 10 7 6 5 6 3 2 1 2 2
9 10 10 10 2 10 3 44 45 42 30 17 12 7 7 7 11 13 5 7 7 8 2 3 9 8 5 5 6 6 6 4 4
6 7 8 11 4 4 32 27 29 43 34 43 26 10 4 7 9 13 12 7 6 3 4 5 3 7 8 7 8 9 7 7 11
2 3 6 8 7 6 29 36 47 15 21 34 35 24 10 3 5 10 11 9 5 6 3 6 6 2 1 3 -2 9 7 6 13
4 -0 3 5 12 6 24 43 19 40 38 26 36 35 14 10 6 4 6 10 14 12 10 3 1 -2 -2 6 8 5 -6 28 19
-1 1 3 2 9 7 20 37 15 41 39 58 35 29 31 10 6 7 25 15 14 14 15 5 -4 23 -2 3 0 39 16 44 5
-4 -3 1 1 3 9 13 25 25 37 20 37 26 26 43 28 11 -40 5 17 24 4 -41 33 34 12 8 8 15 15 12 71 10
-6 -3 -3 -1 3 7 8 20 27 24 44 35 30 49 27 30 8 3 -34 18 -2 -12 29 16 7 18 31 -35 52 -4 -36 -18 32
3 -0 -1 -1 1 3 8 13 21 32 11 20 23 22 6 34 2 4 2 -11 -0 19 -5 -25 28 18 20 40 50 47 53 28 -3
Height
5855 5854 5852 5851 5850 5849 5848 5848 5848 5847 5847 5847 5847 5847 5847 5848 5849 5850 5851 5850 5851 5851 5852 5852 5852 5853 5853 5853 5854 5854 5855 5855 5856
5851 5849 5848 5847 5845 5844 5842 5842 5841 5841 5841 5841 5841 5841 5841 5842 5843 5843 5845 5844 5846 5847 5847 5848 5848 5848 5849 5849 5850 5851 5851 5851 5852
5844 5843 5842 5840 5839 5838 5836 5835 5834 5834 5834 5835 5835 5835 5835 5835 5836 5837 5838 5838 5840 5841 5842 5843 5844 5844 5845 5845 5846 5846 5847 5848 5848
5837 5835 5834 5832 5830 5830 5829 5827 5826 5826 5826 5827 5827 5828 5828 5829 5830 5830 5831 5831 5833 5835 5836 5837 5838 5839 5840 5841 5842 5842 5843 5844 5844
5828 5826 5824 5822 5820 5820 5819 5818 5817 5817 5816 5817 5818 5819 5820 5822 5822 5823 5824 5824 5826 5827 5829 5831 5832 5833 5834 5835 5837 5838 5838 5839 5840
5818 5817 5815 5812 5810 5809 5808 5807 5807 5807 5807 5807 5807 5809 5811 5811 5812 5814 5816 5817 5819 5820 5821 5823 5825 5827 5828 5829 5830 5831 5833 5834 5835
5809 5806 5804 5801 5799 5798 5796 5795 5794 5794 5795 5796 5796 5798 5800 5801 5802 5804 5806 5809 5810 5812 5814 5815 5817 5818 5821 5823 5824 5825 5826 5828 5829
5802 5799 5796 5794 5790 5788 5786 5783 5781 5780 5780 5782 5783 5785 5788 5791 5792 5794 5797 5799 5800 5803 5805 5807 5809 5811 5812 5815 5817 5819 5820 5822 5823
5794 5791 5787 5784 5782 5779 5776 5773 5770 5767 5766 5766 5768 5770 5773 5777 5781 5783 5786 5789 5790 5792 5795 5797 5800 5802 5805 5807 5808 5810 5813 5814 5816
5786 5783 5779 5775 5772 5768 5765 5761 5757 5754 5752 5751 5752 5754 5758 5762 5766 5770 5773 5776 5780 5782 5786 5788 5791 5793 5796 5798 5800 5803 5804 5806 5807
5779 5776 5772 5767 5763 5757 5751 5745 5741 5737 5734 5734 5735 5737 5741 5746 5751 5756 5761 5764 5769 5771 5775 5778 5781 5784 5786 5788 5791 5794 5796 5798 5799
5774 5770 5766 5761 5755 5747 5738 5727 5718 5714 5710 5713 5716 5720 5724 5729 5735 5740 5746 5752 5757 5760 5764 5768 5771 5774 5777 5779 5781 5784 5786 5788 5790
5769 5765 5759 5752 5744 5733 5719 5699 5685 5678 5681 5685 5692 5700 5706 5712 5719 5725 5732 5738 5744 5748 5753 5757 5761 5764 5767 5769 5771 5773 5776 5778 5780
5764 5758 5751 5743 5732 5718 5700 5680 5664 5655 5652 5655 5663 5676 5687 5696 5703 5711 5718 5727 5731 5736 5740 5745 5750 5753 5756 5759 5761 5764 5765 5767 5770
5758 5751 5744 5733 5721 5704 5683 5663 5648 5640 5634 5633 5639 5651 5668 5680 5690 5699 5706 5713 5719 5724 5730 5736 5740 5744 5747 5750 5752 5754 5756 5757 5759
5753 5745 5736 5725 5711 5693 5672 5652 5638 5621 5615 5616 5622 5632 5646 5668 5681 5690 5698 5704 5710 5716 5721 5729 5732 5731 5734 5739 5740 5741 5744 5746 5747
5747 5739 5729 5719 5704 5686 5666 5647 5629 5613 5604 5602 5610 5622 5635 5654 5671 5683 5688 5695 5700 5706 5712 5714 5716 5709 5722 5727 5728 5730 5731 5731 5736
5742 5734 5725 5714 5701 5684 5666 5647 5629 5614 5605 5603 5610 5617 5629 5644 5662 5675 5682 5686 5692 5699 5703 5703 5707 5710 5715 5715 5717 5718 5720 5716 5722
5737 5729 5720 5711 5699 5684 5667 5649 5634 5619 5609 5607 5612 5617 5631 5644 5657 5671 5677 5682 5687 5692 5694 5698 5702 5702 5702 5704 5702 5708 5712 5713 5716
5732 5725 5717 5708 5699 5687 5672 5656 5642 5631 5624 5621 5624 5629 5639 5646 5660 5670 5674 5679 5683 5685 5688 5686 5691 5691 5687 5692 5694 5700 5700 5701 5706